[[{"header":{"parameterUnit":"m.s-1","parameterCategory":1,"la1":30.2991,"la2":30.254,"lo1":-89.0895,"lo2":-89.0444,"dy":0.0017,"dx":0.0017,"nx":28,"ny":28,"refTime":"2025-06-05T21:00:00:Z","depth":0,"parameterNumber":2,"parameterNumberName":"U-component_of_WINDS"},"data":[0,0,0,0,0,0,0,0,0,0,0,0,0,0,0,0,0,0,0,0,0,0,0,0,0,0,0,0,0,0,0,0,0,0,0,0,0,0,0,0,0,0,0,0,0,0,0,0,0,0,0,0,0,0,0,0,0,0,3.279,3.2791,0,3.2902,3.2903,3.2905,3.2881,3.2879,3.2877,3.2875,3.2991,3.2996,3.3001,0,0,0,0,0,0,0,0,0,0,0,0,0,3.2554,3.2559,3.2789,3.2791,3.2792,3.2902,3.2903,3.2905,3.2881,3.2879,3.2876,3.2874,3.2989,3.2995,3.3001,0,0,0,0,0,0,0,0,0,0,0,0,0,3.2661,3.256,3.2789,3.2794,3.2795,3.2902,3.2904,3.2905,3.2882,3.2879,3.2876,3.2873,3.2987,3.2995,3.3002,3.3111,0,0,3.3025,3.3029,0,0,0,0,0,0,0,0,3.2655,3.2669,3.2792,3.2794,3.2795,3.2874,3.2863,3.2975,3.2883,3.2849,3.2875,3.2871,3.2955,3.2965,3.2993,3.3117,3.3122,3.3026,3.3031,3.3034,3.3036,0,0,0,0,0,0,0,3.2647,3.2664,3.2834,3.2793,3.2796,3.279,3.2802,3.2884,3.2918,3.2852,3.285,3.2864,3.2955,3.2986,3.2995,3.3124,3.3026,3.3032,3.3037,3.304,3.3343,3.3346,0,0,0,0,0,0,3.2638,3.2658,3.283,3.2837,3.2716,3.2797,3.281,3.2852,3.2917,3.2924,3.2866,3.2862,3.2974,3.2987,3.2999,3.3132,3.3034,3.3041,3.3045,3.3339,3.3343,3.3347,0,0,0,0,0,0,3.2633,3.2654,3.2826,3.2748,3.2769,3.2804,3.2852,3.2856,3.2886,3.2928,3.2934,3.2891,3.2972,3.2989,3.3084,3.3135,3.3044,3.3051,3.3335,3.3341,3.3345,3.3397,0,0,0,0,0,0,3.2627,3.2652,3.2694,3.2749,3.2773,3.2908,3.2855,3.2861,3.2899,3.2895,3.2953,3.296,3.2971,3.3073,3.3091,3.3144,3.3057,3.3331,3.3338,3.3344,3.339,3.3403,3.3414,0,0,0,0,0,3.2618,3.2704,3.2696,3.2717,3.2826,3.2911,3.2925,3.2937,3.2904,3.2946,3.2973,3.2958,3.3127,3.3082,3.3103,3.3159,3.3327,3.3336,3.3343,3.3385,3.34,3.3413,0,0,0,0,0,0,3.2655,3.2711,3.2703,3.2809,3.2856,3.2907,3.2961,3.2952,3.3009,3.3003,3.3015,3.3028,3.3124,3.3151,3.3101,3.3268,3.3222,3.3235,3.3247,3.3262,3.3273,3.3265,3.3063,0,0,0,0,0,3.2675,3.2739,3.2785,3.2874,3.2898,3.2925,3.2963,3.2967,3.3016,3.3036,3.3069,3.3118,3.3181,3.3223,3.3284,3.3394,3.3406,3.3443,3.3454,3.3464,3.3474,3.3534,3.3551,3.3373,3.3373,3.3373,0,0,3.2718,3.2756,3.2796,3.2882,3.2919,3.2985,3.2942,3.3014,3.3064,3.3047,3.3138,3.3165,3.3219,3.3322,3.3369,3.3347,3.3526,3.3474,3.3481,3.3486,3.3544,3.3561,3.3576,3.3379,3.3378,3.3377,0,0,3.2829,3.2865,3.2943,3.298,3.3036,3.3054,3.3073,3.3126,3.3143,3.3235,3.3223,3.3282,3.3392,3.3431,3.3465,3.3592,3.358,3.3611,3.3672,3.373,3.3744,3.3757,3.3802,3.3818,3.3622,3.3622,3.3622,0,3.2875,3.2974,3.2984,3.3058,3.3096,3.3083,3.3163,3.3198,3.3271,3.3298,3.3273,3.341,3.3446,3.3557,3.3588,3.3616,3.3638,3.3605,3.3742,3.3754,3.3766,3.3809,3.3826,3.3625,3.3625,3.3625,3.3624,0,3.3028,3.3097,3.3154,3.3224,3.3269,3.3345,3.3366,3.341,3.3411,3.3431,3.3525,3.3568,3.3637,3.3664,3.3665,3.3776,3.3761,3.3739,3.3693,3.3786,3.3827,3.3843,3.363,3.3629,3.3628,3.3627,0,0,3.3166,3.3241,3.3261,3.3293,3.3354,3.3407,3.3483,3.355,3.3588,3.3639,3.3702,3.3795,3.3775,3.3813,3.3819,3.3871,3.3968,3.3842,3.3843,3.3864,3.4093,3.4109,3.4128,3.3961,3.3964,3.3966,3.4088,0,3.3283,3.3416,3.3427,3.3546,3.361,3.3599,3.3665,3.3709,3.373,3.3788,3.3811,3.3877,3.3845,3.3868,3.3919,3.3945,3.4014,3.3937,3.402,3.4023,3.4006,3.4149,3.4167,3.4279,3.4104,3.4107,3.4109,0,3.3438,3.3493,3.3618,3.367,3.3697,3.3756,3.3818,3.3873,3.3923,3.3935,3.3979,3.3977,3.4055,3.4006,3.4113,3.4061,3.4095,3.4114,3.4118,3.4126,3.4071,3.4161,3.4316,3.4332,3.4134,3.4132,3.413,0,3.3525,3.3631,3.372,3.3747,3.381,3.3851,3.3879,3.3926,3.3966,3.4021,3.4046,3.411,3.4145,3.4194,3.421,3.4173,3.4316,3.4269,3.4328,3.4328,3.4359,3.4357,3.4521,3.4381,3.4381,3.4381,3.438,0,3.3655,3.3732,3.376,3.3815,3.3901,3.3913,3.3998,3.4023,3.4065,3.4125,3.4119,3.4175,3.4193,3.4252,3.4265,3.4352,3.4367,3.4379,3.4382,3.438,3.4378,3.4402,3.4395,3.4385,3.4384,3.4383,3.4383,0,3.3768,3.3789,3.3885,3.3936,3.3951,3.4012,3.4056,3.4109,3.4128,3.4204,3.4222,3.4254,3.4323,3.4344,3.4427,3.4436,3.4537,3.4533,3.452,3.4521,3.4579,3.4573,3.4764,3.479,3.4634,3.4635,3.4636,0,3.3849,3.3908,3.3965,3.4004,3.4034,3.4097,3.4138,3.4152,3.4195,3.4256,3.4301,3.437,3.4425,3.4536,3.4567,3.463,3.4627,3.469,3.4637,3.4633,3.4628,3.4624,3.463,3.47,3.4702,3.4703,3.4704,0,3.3991,3.3998,3.4057,3.4119,3.4168,3.4218,3.4266,3.4298,3.4319,3.4367,3.4438,3.4481,3.4566,3.4634,3.4698,3.4727,3.472,3.4721,3.4738,3.4736,3.4726,3.4732,3.4548,3.4716,3.4715,3.4714,3.4713,3.4713,3.409,3.4142,3.419,3.4256,3.4293,3.4338,3.439,3.4416,3.4475,3.4545,3.455,3.4627,3.4675,3.4761,3.4793,3.4853,3.4835,3.486,3.4866,3.4872,3.4876,3.4717,3.4865,3.4865,3.4865,3.4864,3.4864,0,3.4231,3.4262,3.4322,3.4389,3.444,3.4428,3.4481,3.4524,3.4592,3.4637,3.4692,3.4773,3.4839,3.4874,3.494,3.4981,3.4979,3.4998,3.4995,3.5002,3.4889,3.4868,3.4998,3.4998,3.4998,3.4998,3.4998,3.4998,3.4311,3.4398,3.4411,3.4517,3.4547,3.4622,3.4653,3.4694,3.473,3.4821,3.4876,3.4898,3.494,3.5009,3.5068,3.5077,3.5101,3.5122,3.5129,3.5023,3.5009,3.4996,3.4976,3.5128,3.5128,3.5236,3.5237,3.5238]},{"header":{"parameterUnit":"m.s-1","parameterCategory":1,"la1":30.2991,"la2":30.254,"lo1":-89.0895,"lo2":-89.0444,"dy":0.0017,"dx":0.0017,"nx":28,"ny":28,"refTime":"2025-06-05T21:00:00:Z","depth":0,"parameterNumber":3,"parameterNumberName":"V-component_of_WINDS"},"data":[0,0,0,0,0,0,0,0,0,0,0,0,0,0,0,0,0,0,0,0,0,0,0,0,0,0,0,0,0,0,0,0,0,0,0,0,0,0,0,0,0,0,0,0,0,0,0,0,0,0,0,0,0,0,0,0,0,0,0.6659,0.6659,0,0.6662,0.6662,0.6662,0.6653,0.6653,0.6653,0.6653,0.6655,0.6656,0.6656,0,0,0,0,0,0,0,0,0,0,0,0,0,0.6646,0.6646,0.6659,0.6659,0.6659,0.6662,0.6662,0.6662,0.6653,0.6653,0.6653,0.6652,0.6655,0.6655,0.6656,0,0,0,0,0,0,0,0,0,0,0,0,0,0.6651,0.6646,0.6659,0.6655,0.6655,0.6662,0.6662,0.6662,0.6653,0.6653,0.6653,0.6652,0.6655,0.6655,0.6656,0.6667,0,0,0.6657,0.6658,0,0,0,0,0,0,0,0,0.665,0.6651,0.6656,0.6656,0.6655,0.6657,0.6658,0.6664,0.6654,0.6654,0.6653,0.6652,0.6656,0.6656,0.6658,0.6667,0.6667,0.6657,0.6658,0.6658,0.6658,0,0,0,0,0,0,0,0.665,0.6651,0.666,0.6656,0.6656,0.6653,0.6653,0.6659,0.6657,0.6654,0.6653,0.6654,0.6656,0.6657,0.6658,0.6667,0.6657,0.6658,0.6658,0.6658,0.6685,0.6686,0,0,0,0,0,0,0.665,0.6651,0.666,0.666,0.6652,0.6654,0.6654,0.6657,0.6657,0.6657,0.6654,0.6653,0.6657,0.6657,0.6658,0.6671,0.6658,0.6658,0.6659,0.6685,0.6685,0.6686,0,0,0,0,0,0,0.665,0.6651,0.666,0.6655,0.6656,0.6654,0.6658,0.6657,0.6659,0.6657,0.6657,0.6656,0.6656,0.6657,0.6665,0.6671,0.6659,0.6659,0.6684,0.6685,0.6686,0.6697,0,0,0,0,0,0,0.665,0.6651,0.6655,0.6656,0.6657,0.6667,0.6658,0.6657,0.6659,0.6659,0.6659,0.6659,0.6656,0.6664,0.6665,0.6671,0.6659,0.6684,0.6685,0.6685,0.6696,0.6698,0.6699,0,0,0,0,0,0.6649,0.6658,0.6656,0.6657,0.6662,0.6667,0.6668,0.6665,0.666,0.6664,0.6663,0.6659,0.667,0.6665,0.6666,0.6672,0.6683,0.6684,0.6685,0.6695,0.6697,0.6699,0,0,0,0,0,0,0.6659,0.6658,0.6655,0.6665,0.6666,0.6666,0.6671,0.6668,0.667,0.6669,0.6665,0.6665,0.6674,0.6674,0.6668,0.6683,0.6676,0.6677,0.6683,0.6685,0.6687,0.6687,0.666,0,0,0,0,0,0.6662,0.6667,0.6666,0.6675,0.6675,0.6673,0.6676,0.6673,0.6674,0.6675,0.6674,0.6676,0.6679,0.6682,0.6685,0.6696,0.6696,0.6701,0.6702,0.6704,0.6705,0.671,0.6712,0.6689,0.6689,0.6689,0,0,0.6669,0.667,0.6673,0.6677,0.6677,0.6682,0.6674,0.6679,0.6683,0.6676,0.6683,0.6682,0.6684,0.6692,0.6696,0.6693,0.6711,0.6705,0.6706,0.6707,0.6711,0.6714,0.6716,0.669,0.669,0.6689,0,0,0.6685,0.6685,0.6692,0.6693,0.6694,0.6693,0.6694,0.6695,0.6694,0.6701,0.6696,0.67,0.6706,0.6707,0.6709,0.6724,0.672,0.6725,0.6734,0.674,0.6741,0.6743,0.6749,0.6751,0.6726,0.6726,0.6726,0,0.6693,0.67,0.6696,0.6702,0.6704,0.6698,0.6705,0.6706,0.6708,0.6709,0.6705,0.6713,0.6714,0.6723,0.6726,0.6728,0.6729,0.6725,0.6741,0.6743,0.6744,0.675,0.6752,0.6727,0.6727,0.6727,0.6727,0,0.6711,0.6716,0.6721,0.6724,0.6726,0.6732,0.673,0.6732,0.6729,0.6728,0.6735,0.6735,0.6739,0.6741,0.6738,0.6749,0.6747,0.6742,0.6735,0.6747,0.6752,0.6754,0.6728,0.6728,0.6727,0.6727,0,0,0.6733,0.6733,0.6735,0.6736,0.6736,0.674,0.6746,0.6749,0.6752,0.6753,0.6758,0.6764,0.6759,0.6761,0.6758,0.6763,0.6775,0.6757,0.6757,0.6761,0.6787,0.6791,0.6794,0.6772,0.6772,0.6773,0.6787,0,0.6748,0.6758,0.6755,0.6765,0.677,0.6764,0.6769,0.677,0.6769,0.6772,0.6771,0.6775,0.6769,0.6769,0.6774,0.6773,0.678,0.6771,0.6777,0.6777,0.6777,0.6796,0.68,0.6814,0.6789,0.679,0.679,0,0.6767,0.6769,0.678,0.678,0.6782,0.6787,0.6789,0.6793,0.6793,0.6792,0.6794,0.679,0.6796,0.6788,0.6796,0.679,0.6792,0.6792,0.6792,0.6793,0.6784,0.6798,0.6819,0.6821,0.6793,0.6793,0.6792,0,0.6782,0.6788,0.6795,0.6796,0.6796,0.68,0.68,0.68,0.6802,0.6804,0.6806,0.6808,0.681,0.6812,0.6809,0.6804,0.6817,0.6809,0.6817,0.6817,0.682,0.682,0.6842,0.6821,0.6821,0.6821,0.6821,0,0.68,0.6807,0.6802,0.6807,0.6815,0.681,0.6818,0.6817,0.6818,0.6822,0.6816,0.682,0.6816,0.682,0.6817,0.6824,0.6825,0.6824,0.6823,0.6825,0.6825,0.6826,0.6825,0.6821,0.6821,0.6821,0.6821,0,0.6818,0.6816,0.6823,0.6822,0.6822,0.6828,0.6827,0.6831,0.6829,0.6835,0.6836,0.6833,0.6837,0.6834,0.6838,0.6836,0.6845,0.6843,0.6845,0.6845,0.6852,0.6852,0.6876,0.6879,0.6856,0.6856,0.6856,0,0.683,0.6835,0.6835,0.6837,0.6837,0.6841,0.6843,0.6839,0.6842,0.6843,0.6847,0.685,0.6853,0.6859,0.6858,0.6861,0.6859,0.6867,0.6859,0.686,0.6859,0.6859,0.6859,0.6869,0.6869,0.6869,0.6869,0,0.6851,0.6849,0.6852,0.6855,0.6857,0.6859,0.6861,0.6863,0.6859,0.6861,0.6865,0.6867,0.6871,0.6875,0.6877,0.6877,0.6873,0.6872,0.6874,0.6875,0.6876,0.6876,0.685,0.6871,0.6871,0.6871,0.6871,0.6871,0.6866,0.687,0.6871,0.6874,0.6875,0.6876,0.688,0.6879,0.6882,0.6885,0.6882,0.6887,0.6887,0.689,0.689,0.6894,0.689,0.6893,0.6894,0.6895,0.6896,0.6875,0.6894,0.6894,0.6894,0.6894,0.6894,0,0.6887,0.6887,0.689,0.6892,0.6895,0.689,0.6891,0.6894,0.6898,0.6899,0.6902,0.6906,0.6909,0.6908,0.6911,0.6914,0.6912,0.6915,0.6915,0.6915,0.6899,0.6897,0.6916,0.6916,0.6916,0.6916,0.6916,0.6916,0.6898,0.6905,0.6903,0.691,0.691,0.6915,0.6916,0.6917,0.6918,0.6923,0.6925,0.6924,0.6924,0.6927,0.693,0.6929,0.6931,0.6934,0.6933,0.6918,0.6916,0.6914,0.6912,0.6934,0.6935,0.6949,0.6949,0.6949]}]]